Location: Arrington
(35.8681°N, 86.7092°W)
Time: 05:26:40
(UTC+00:00)

Atlas Centaur 2 - Pass Details

Date: 23 November 2019
Orbit: 459 x 1311 km, 30.4° (Epoch: 07 December)

Event Time Altitude Azimuth Distance (km) Brightness Sun altitude
Rises 00:05:56 0° 208° (SSW) 4,281 6.4 -18.1°
Reaches altitude 10° 00:10:04 10° 191° (SSW) 3,279 5.5 -19.0°
Maximum altitude 00:15:18 18° 152° (SSE) 2,601 4.5 -20.0°
Enters shadow 00:17:54 16° 129° (SE) 2,702 4.4 -20.5°
